Date String (YYYY-MM-DD hh:mm:ss) UTC,Instrument flags,absolute air pressure of the measurement (hPa),sample flow rate (lpm),inlet stack bypass flow (lpm),air temperature of the measurement (°C),ambient temperature measured by the external sensor (°C),aerosol sample conditioner tube jacket temperature (°C),OPC LED temperature (°C),internal box temperature (°C),relative humidity of the measurement (%),span deviation,mass concentration of particles derived from Lorenz-Mie calculation of OPC scattering (μg/m³),mass concentration of particles derived from Lorenz-Mie calculation of OPC scattering (μg/m³),mass concentration of particles derived from Lorenz-Mie calculation of OPC scattering (μg/m³)
DateTimeUTC,F1_M11,P_M11,Q1_M11,Q2_M11,T1_M11,T2_M11,T3_M11,T4_M11,T5_M11,U1_M11,ZSPAN_M11,X2_M11,X0_M11,X1_M11
2024-01-25 05:00:00,SystemResetWarning,0827.1,4.99,000.00,023.2,022.1,000.0,031.6,024.6,15.7,0001.7,0005.68,0010.00,0005.20
2024-01-25 05:01:00,SystemResetWarning,0827.1,5.00,000.00,023.2,022.1,000.0,031.6,024.6,15.7,0001.9,0005.67,0009.98,0005.20
2024-01-25 05:02:00,SystemResetWarning,0827.1,5.00,000.00,023.2,022.1,000.0,031.6,024.6,15.7,0001.8,0005.68,0010.56,0005.20
2024-01-25 05:03:00,SystemResetWarning,0827.1,5.00,000.00,023.2,022.0,000.0,031.6,024.6,15.8,0001.9,0005.66,0011.22,0005.22
2024-01-25 05:04:00,SystemResetWarning,0827.1,5.01,000.00,023.2,022.0,000.0,031.6,024.6,15.8,0001.8,0005.66,0011.02,0005.23
2024-01-25 05:05:00,SystemResetWarning,0827.1,5.01,000.00,023.2,022.0,000.0,031.6,024.6,15.8,0001.5,0005.67,0010.54,0005.25
2024-01-25 05:06:00,SystemResetWarning,0827.1,5.01,000.00,023.2,022.0,000.0,031.6,024.6,15.8,0001.8,0005.68,0010.42,0005.28
2024-01-25 05:07:00,SystemResetWarning,0827.1,5.00,000.00,023.2,022.0,000.0,031.6,024.6,15.8,0001.8,0005.68,0010.38,0005.28
2024-01-25 05:08:00,SystemResetWarning,0827.1,5.00,000.00,023.2,022.1,000.0,031.6,024.6,15.8,0002.5,0005.68,0010.65,0005.29
2024-01-25 05:09:00,SystemResetWarning,0827.1,5.00,000.00,023.2,022.1,000.0,031.5,024.6,15.8,0002.8,0005.67,0010.78,0005.30
2024-01-25 05:10:00,SystemResetWarning,0827.1,5.00,000.00,023.2,022.1,000.0,031.5,024.6,15.8,0002.8,0005.69,0011.28,0005.31
2024-01-25 05:11:00,SystemResetWarning,0827.1,5.00,000.00,023.2,022.1,000.0,031.5,024.6,15.8,0003.0,0005.69,0011.25,0005.31
2024-01-25 05:12:00,SystemResetWarning,0827.1,5.00,000.00,023.2,022.1,000.0,031.5,024.6,15.8,0002.7,0005.71,0011.27,0005.33
2024-01-25 05:13:00,SystemResetWarning,0827.1,5.00,000.00,023.2,022.1,000.0,031.5,024.6,15.7,0002.7,0005.72,0010.90,0005.37
2024-01-25 05:14:00,SystemResetWarning,0827.2,5.00,000.00,023.2,022.1,000.0,031.5,024.6,15.8,0002.6,0005.78,0010.27,0005.40
2024-01-25 05:15:00,SystemResetWarning,0827.1,5.00,000.00,023.2,022.1,000.0,031.5,024.6,15.8,0002.1,0005.81,0010.23,0005.43
2024-01-25 05:16:00,SystemResetWarning,0827.1,5.00,000.00,023.2,022.1,000.0,031.5,024.6,15.8,0002.1,0005.87,0010.69,0005.46
2024-01-25 05:17:00,SystemResetWarning,0827.1,5.00,000.00,023.2,022.1,000.0,031.5,024.6,15.7,0001.9,0005.93,0011.18,0005.50
2024-01-25 05:18:00,SystemResetWarning,0827.1,5.01,000.00,023.2,022.1,000.0,031.5,024.6,15.7,0001.5,0005.98,0011.24,0005.55
2024-01-25 05:19:00,SystemResetWarning,0827.1,5.00,000.00,023.2,022.2,000.0,031.5,024.6,15.7,0000.9,0006.02,0011.03,0005.59
2024-01-25 05:20:00,SystemResetWarning,0827.1,5.00,000.00,023.2,022.2,000.0,031.5,024.6,15.7,0001.2,0006.06,0010.97,0005.63
2024-01-25 05:21:00,SystemResetWarning,0827.2,5.00,000.00,023.2,022.2,000.0,031.5,024.6,15.7,0001.3,0006.15,0010.27,0005.70
2024-01-25 05:22:00,SystemResetWarning,0827.1,4.99,000.00,023.2,022.2,000.0,031.5,024.6,15.7,0001.2,0006.22,0010.25,0005.78
2024-01-25 05:23:00,SystemResetWarning,0827.2,4.99,000.00,023.2,022.2,000.0,031.5,024.6,15.7,0001.4,0006.31,0010.42,0005.87
2024-01-25 05:24:00,SystemResetWarning,0827.1,5.00,000.00,023.2,022.2,000.0,031.5,024.6,15.7,0001.2,0006.41,0010.61,0005.95
2024-01-25 05:25:00,SystemResetWarning,0827.1,5.00,000.00,023.2,022.2,000.0,031.5,024.6,15.7,0001.3,0006.48,0010.87,0006.01
2024-01-25 05:26:00,SystemResetWarning,0827.1,5.00,000.00,023.2,022.3,000.0,031.5,024.6,15.7,0002.1,0006.54,0011.00,0006.06
2024-01-25 05:27:00,SystemResetWarning,0827.2,4.99,000.00,023.2,022.3,000.0,031.5,024.6,15.7,0002.4,0006.60,0011.01,0006.13
2024-01-25 05:28:00,SystemResetWarning,0827.2,5.01,000.00,023.2,022.3,000.0,031.5,024.6,15.7,0003.1,0006.67,0011.07,0006.19
2024-01-25 05:29:00,SystemResetWarning,0827.2,5.00,000.00,023.2,022.3,000.0,031.5,024.7,15.7,0003.6,0006.71,0011.62,0006.23
2024-01-25 05:30:00,SystemResetWarning,0827.2,5.00,000.00,023.2,022.3,000.0,031.5,024.7,15.7,0003.8,0006.76,0011.75,0006.28
2024-01-25 05:31:00,SystemResetWarning,0827.1,5.00,000.00,023.2,022.3,000.0,031.5,024.6,15.7,0003.6,0006.81,0011.84,0006.32
2024-01-25 05:32:00,SystemResetWarning,0827.2,5.00,000.00,023.2,022.3,000.0,031.5,024.6,15.6,0003.5,0006.80,0011.87,0006.34
2024-01-25 05:33:00,SystemResetWarning,0827.2,5.00,000.00,023.2,022.2,000.0,031.5,024.6,15.6,0003.7,0006.83,0012.02,0006.36
2024-01-25 05:34:00,SystemResetWarning,0827.3,5.00,000.00,023.2,022.2,000.0,031.5,024.6,15.6,0003.6,0006.84,0012.52,0006.38
2024-01-25 05:35:00,SystemResetWarning,0827.3,5.00,000.00,023.2,022.1,000.0,031.5,024.6,15.6,0003.6,0006.83,0012.61,0006.37
2024-01-25 05:36:00,SystemResetWarning,0827.3,5.00,000.00,023.2,022.1,000.0,031.5,024.5,15.5,0003.7,0006.79,0012.52,0006.35
2024-01-25 05:37:00,SystemResetWarning,0827.3,5.00,000.00,023.1,022.1,000.0,031.5,024.5,15.5,0003.7,0006.81,0012.53,0006.34
2024-01-25 05:38:00,SystemResetWarning,0827.3,5.00,000.00,023.1,022.0,000.0,031.5,024.5,15.5,0003.5,0006.81,0012.71,0006.31
2024-01-25 05:39:00,SystemResetWarning,0827.2,5.00,000.00,023.1,022.0,000.0,031.5,024.5,15.5,0002.7,0006.79,0012.64,0006.29
2024-01-25 05:40:00,SystemResetWarning,0827.3,5.01,000.00,023.1,022.0,000.0,031.5,024.5,15.5,0002.7,0006.82,0013.11,0006.28
2024-01-25 05:41:00,SystemResetWarning,0827.2,5.00,000.00,023.1,022.0,000.0,031.5,024.5,15.5,0002.3,0006.78,0013.60,0006.24
2024-01-25 05:42:00,SystemResetWarning,0827.2,5.00,000.00,023.1,022.0,000.0,031.5,024.5,15.5,0001.9,0006.74,0013.54,0006.20
2024-01-25 05:43:00,SystemResetWarning,0827.2,4.99,000.00,023.1,022.0,000.0,031.5,024.5,15.5,0002.6,0006.70,0013.49,0006.16
2024-01-25 05:44:00,SystemResetWarning,0827.2,5.00,000.00,023.1,022.0,000.0,031.5,024.5,15.5,0002.7,0006.64,0013.29,0006.11
2024-01-25 05:45:00,SystemResetWarning,0827.2,5.00,000.00,023.1,022.0,000.0,031.5,024.5,15.5,0002.1,0006.57,0012.60,0006.05
2024-01-25 05:46:00,SystemResetWarning,0827.2,4.99,000.00,023.1,022.0,000.0,031.4,024.5,15.5,0002.1,0006.49,0012.24,0006.00
2024-01-25 05:47:00,SystemResetWarning,0827.2,4.99,000.00,023.1,022.0,000.0,031.4,024.5,15.5,0001.5,0006.44,0012.00,0005.97
2024-01-25 05:48:00,SystemResetWarning,0827.2,5.00,000.00,023.1,021.9,000.0,031.4,024.5,15.4,0001.5,0006.40,0011.94,0005.94
2024-01-25 05:49:00,SystemResetWarning,0827.2,5.00,000.00,023.1,021.9,000.0,031.4,024.5,15.3,0001.7,0006.36,0011.61,0005.91
2024-01-25 05:50:00,SystemResetWarning,0827.2,5.00,000.00,023.1,021.9,000.0,031.4,024.4,15.3,0002.0,0006.30,0011.04,0005.87
2024-01-25 05:51:00,SystemResetWarning,0827.2,5.00,000.00,023.0,021.9,000.0,031.4,024.4,15.2,0002.1,0006.22,0009.94,0005.83
2024-01-25 05:52:00,SystemResetWarning,0827.3,5.00,000.00,023.0,021.9,000.0,031.4,024.4,15.2,0002.4,0006.22,0009.35,0005.84
2024-01-25 05:53:00,SystemResetWarning,0827.2,5.00,000.00,023.0,021.8,000.0,031.4,024.4,15.2,0002.7,0006.22,0009.31,0005.85
2024-01-25 05:54:00,SystemResetWarning,0827.2,5.00,000.00,023.0,021.8,000.0,031.4,024.4,15.2,0002.5,0006.27,0009.73,0005.87
2024-01-25 05:55:00,SystemResetWarning,0827.2,4.99,000.00,023.0,021.8,000.0,031.4,024.4,15.1,0002.2,0006.32,0009.81,0005.90
2024-01-25 05:56:00,SystemResetWarning,0827.2,4.99,000.00,023.0,021.8,000.0,031.4,024.4,14.9,0002.2,0006.34,0009.91,0005.91
2024-01-25 05:57:00,SystemResetWarning,0827.2,5.00,000.00,023.0,021.8,000.0,031.4,024.4,14.9,0002.1,0006.36,0010.00,0005.92
2024-01-25 05:58:00,SystemResetWarning,0827.2,4.99,000.00,023.0,021.8,000.0,031.4,024.4,14.9,0002.3,0006.34,0010.46,0005.90
2024-01-25 05:59:00,SystemResetWarning,0827.2,4.99,000.00,023.0,021.8,000.0,031.4,024.4,15.0,0002.4,0006.27,0010.70,0005.85
